This is the latest recevied weather packets stored in our database for station/object KC5TIL. If no packets are shown the sender has not sent any weather packets the latest 10 day(s).
| Time | Temp. | Humidity | Pressure | Rain* | Wind** | Luminosity | Snow |
|---|---|---|---|---|---|---|---|
| 1777930731 | 28.33° C | 57% | 1007.8 hPa | 0 mm | - | 498 W/m² | - |
| 1777930427 | 28.33° C | 57% | 1007.9 hPa | 0 mm | - | 399 W/m² | - |
| 1777930124 | 28.33° C | 57% | 1007.8 hPa | 0 mm | - | 474 W/m² | - |
| 1777929820 | 28.89° C | 57% | 1007.8 hPa | 0 mm | - | 581 W/m² | - |
| 1777929518 | 28.89° C | 57% | 1008.1 hPa | 0 mm | - | 471 W/m² | - |
| 1777929214 | 28.89° C | 56% | 1008.3 hPa | 0 mm | - | 614 W/m² | - |
| 1777928912 | 28.33° C | 58% | 1008.1 hPa | 0 mm | - | 562 W/m² | - |
| 1777928609 | 28.33° C | 58% | 1008.1 hPa | 0 mm | - | 602 W/m² | - |
| 1777928306 | 28.89° C | 57% | 1008.4 hPa | 0 mm | - | 615 W/m² | - |
| 1777928003 | 28.89° C | 56% | 1008.4 hPa | 0 mm | - | 613 W/m² | - |
| 1777927701 | 28.89° C | 56% | 1008.5 hPa | 0 mm | - | 622 W/m² | - |
| 1777927400 | 28.89° C | 56% | 1008.7 hPa | 0 mm | - | 603 W/m² | - |
| 1777927099 | 28.33° C | 56% | 1008.7 hPa | 0 mm | - | 648 W/m² | - |
| 1777926795 | 28.89° C | 57% | 1008.8 hPa | 0 mm | - | 636 W/m² | - |
| 1777926491 | 28.33° C | 56% | 1008.7 hPa | 0 mm | - | 672 W/m² | - |
| 1777926189 | 28.89° C | 54% | 1009.1 hPa | 0 mm | - | 658 W/m² | - |
| 1777925885 | 28.89° C | 55% | 1009.2 hPa | 0 mm | - | 644 W/m² | - |
| 1777925582 | 28.33° C | 54% | 1009.4 hPa | 0 mm | - | 681 W/m² | - |
| 1777925280 | 28.33° C | 56% | 1009.5 hPa | 0 mm | - | 639 W/m² | - |
| 1777924976 | 27.78° C | 57% | 1009.6 hPa | 0 mm | - | 682 W/m² | - |
| 1777924672 | 28.33° C | 56% | 1009.8 hPa | 0 mm | - | 667 W/m² | - |
| 1777924368 | 27.78° C | 57% | 1010 hPa | 0 mm | - | 661 W/m² | - |
| 1777924065 | 27.78° C | 57% | 1010 hPa | 0 mm | - | 665 W/m² | - |
| 1777923761 | 27.78° C | 57% | 1010.2 hPa | 0 mm | - | 624 W/m² | - |
| 1777923458 | 27.78° C | 57% | 1010.2 hPa | 0 mm | - | 444 W/m² | - |
* Rain latest hour (hover to see other rain measurements)
** Current wind speed in m/s (hover to see current wind gust speed)